User: anonymous   Login
Location: Unspecified
(0.0000°N, 0.0000°E)
Time: 18:50:37
(UTC+01:00)
Language:

ARIANE 5 R/B - Orbit

View from above orbital plane
View from above orbital plane
View from above satellite
View from above satellite

Ground track
Ground track

The orbit data is extracted from the following two-line orbital elements,

1 28787U 05028B   16038.86949546 -.00000022 +00000-0 -15098-3 0  9998
2 28787 006.8378 230.9400 7158506 182.7107 353.6211 02.26559999086856
Epoch (UTC): 07 February 2016 20:52:04
Eccentricity: 0.7158506
inclination: 6.8378°
perigee height: 580 km
apogee height: 35638 km
right ascension of ascending node: 230.9400°
argument of perigee: 182.7107°
revolutions per day: 2.26559999
mean anomaly at epoch: 353.6211°
orbit number at epoch: 8685

The dashed part of the orbit path shows where the satellite is in the earth's shadow,  

DLR